Location: Faoug
(46.9082°N, 7.0771°E)
Time: 06:04:34
(UTC+00:00)

Daily predictions for brighter satellites

Satellite Brightness Start Highest point End
(mag) Time Altitude Azimuth Time Altitude Azimuth Time Altitude Azimuth
Cosmos 1603 3.8 18:31:33 10° SSW 18:37:10 89° SE 18:42:49 10° NNE
NOSS 3-3 (A) 4.1 18:31:50 10° SW 18:37:45 82° NW 18:44:28 10° NE
NOSS 3-3 (C) 4.1 18:31:57 10° SW 18:37:51 83° NW 18:44:34 10° NE
ATLAS 5 CENTAUR R/B 2.5 18:36:27 10° S 18:39:53 25° ESE 18:43:35 10° ENE
Cosmos 2058 Rocket 4.3 18:36:47 10° SE 18:40:17 22° E 18:43:47 10° NE
Cosmos 2184 Rocket 4.1 18:35:28 10° N 18:41:43 63° ENE 18:47:52 10° SSE
STARLINK-52 4.4 18:39:42 10° S 18:42:07 20° SE 18:44:34 10° E
Cosmos 1726 Rocket 4.1 18:41:28 10° SSE 18:45:31 37° E 18:49:37 10° NNE
Aureole 1 Rocket 4.4 18:41:54 10° S 18:49:01 48° ESE 18:54:41 10° NE
Meteor 1-16 Rocket 4.2 18:45:23 10° S 18:50:43 65° E 18:56:17 10° NNE
FREGAT/IRIS 2.4 18:48:10 10° SSE 18:50:49 54° ENE 18:53:30 10° N
SJ-6B 3.3 18:47:07 10° SE 18:51:04 47° ENE 18:55:03 10° N
Cosmos 1943 Rocket 3.8 18:47:25 10° NW 18:52:26 36° WSW 18:57:28 10° S
Cosmos 1825 Rocket 3.5 18:48:18 10° N 18:52:43 73° E 18:57:03 10° SSE
Cosmos 921 Rocket 3.9 18:49:57 10° N 18:53:39 29° ENE 18:57:17 10° ESE
H-2A R/B 2.0 18:49:51 10° SSE 18:55:01 78° ENE 19:00:06 10° N
Cosmos 1461 3.4 18:52:53 10° NNW 18:57:20 55° NE 19:01:46 11° SE
Resurs 01 Rocket 2.9 18:54:22 10° ESE 18:57:49 23° ENE 19:01:18 10° NNE
USA 234 4.5 18:55:09 10° E 18:59:14 17° ESE 19:03:18 10° SSE
Cosmos 2228 3.0 18:56:02 10° S 19:00:17 61° E 19:04:35 10° NNE
Nadezhda 1 Rocket 4.2 18:54:12 10° SSE 19:00:24 55° E 19:06:34 10° NNE
ATLAS 2AS CENTAUR R/B 2.9 18:53:19 10° NW 19:01:01 85° NE 19:08:02 10° SE
SeaSat 1 3.0 18:57:02 10° NNE 19:01:57 66° WNW 19:06:49 10° SW
Cosmos 1300 4.2 19:00:25 11° SE 19:02:52 18° E 19:05:30 10° NE
CZ-2C R/B 2.8 18:58:59 10° SSE 19:03:50 84° ENE 19:08:37 10° NNW
Cosmos 2154 Rocket 4.1 18:58:14 10° N 19:04:33 61° ENE 19:10:47 10° SSE
Cosmos 2369 Rocket 3.7 19:00:43 10° NW 19:05:54 37° WSW 19:11:02 10° S
Cosmos 1758 Rocket 3.9 19:02:40 10° NNW 19:06:59 67° W 19:11:15 10° S
USA 186 1.8 19:03:52 10° S 19:07:11 84° WSW 19:10:20 10° NNW
Ariane Rocket 3.4 19:05:06 10° S 19:10:08 68° WSW 19:15:12 10° NNW
Cosmos 1140 Rocket 3.8 19:06:15 10° S 19:11:09 44° ESE 19:16:04 10° NNE
BREEZE M DEB (TANK) 4.2 18:59:34 10° SW 19:11:13 54° SSE 19:14:50 11° ENE
SL-4 R/B 1.8 19:09:34 10° WSW 19:12:57 70° NNW 19:16:24 10° ENE
Cosmos 1953 Rocket 3.6 19:10:36 10° N 19:15:06 84° ENE 19:19:36 10° S
Cosmos 1606 Rocket 3.6 19:11:11 10° S 19:15:38 87° W 19:20:08 10° N
Cosmos 1703 3.3 19:12:02 10° N 19:16:00 84° W 19:19:58 10° S
STARLINK-1234 2.9 19:13:18 10° WNW 19:16:15 63° NNE 19:18:03 21° ESE
STARLINK-1209 2.8 19:13:55 10° WNW 19:16:52 67° NNE 19:18:37 21° ESE
Cosmos 1340 Rocket 3.0 19:13:03 10° S 19:16:58 50° E 19:20:53 10° NNE
Cosmos 1328 3.9 19:15:40 10° NNW 19:19:41 79° W 19:23:41 10° S
STARLINK-1203 4.4 19:16:09 10° WNW 19:20:12 44° NNE 19:23:23 15° E
STARLINK-1233 3.2 19:17:16 10° NW 19:20:22 55° NNE 19:22:13 21° E
MOS 1 4.5 19:14:44 10° S 19:20:23 76° WSW 19:26:05 10° NNW
STARLINK-1212 3.2 19:17:42 10° NW 19:20:48 55° NNE 19:22:37 22° E
STARLINK-1224 4.5 19:17:15 10° WNW 19:21:14 43° NNE 19:24:21 15° E
Cosmos 614 Rocket 4.0 19:16:01 10° SSW 19:21:15 87° ESE 19:26:29 10° NNE
STARLINK-1105 3.2 19:18:08 10° NW 19:21:15 56° NNE 19:23:04 22° E
Cosmos 1190 Rocket 4.0 19:16:04 10° S 19:21:17 63° ESE 19:26:32 10° NNE
STARLINK-1206 3.2 19:18:38 10° NW 19:21:44 56° NNE 19:23:29 22° E
STARLINK-1247 3.2 19:19:05 10° NW 19:22:10 56° NNE 19:23:55 22° E
STARLINK-1227 3.2 19:19:30 10° NW 19:22:37 57° NNE 19:24:22 23° E
STARLINK-1218 3.2 19:19:58 10° NW 19:23:04 57° NNE 19:24:47 23° E
STARLINK-1226 3.2 19:20:25 10° NW 19:23:31 57° NNE 19:25:13 23° E
Cosmos 1908 3.2 19:19:42 10° S 19:23:35 86° WNW 19:27:29 10° N
STARLINK-1254 3.2 19:20:51 10° NW 19:23:57 58° NNE 19:25:40 23° E
STARLINK-1215 3.1 19:21:20 10° WNW 19:24:26 58° NNE 19:26:06 24° E
ERBS 3.8 19:21:56 10° NW 19:24:52 27° NNE 19:26:51 16° ENE
STARLINK-1231 3.1 19:21:47 10° WNW 19:24:53 58° NNE 19:26:31 24° E
STARLINK-1232 3.1 19:22:42 10° WNW 19:25:47 59° NNE 19:27:24 25° E
STARLINK-1217 3.1 19:23:08 10° WNW 19:26:13 60° NNE 19:27:49 25° E
STARLINK-1225 4.4 19:22:15 10° WNW 19:26:15 44° NNE 19:29:09 17° E
STARLINK-1208 3.1 19:23:34 10° WNW 19:26:41 60° NNE 19:28:17 25° E
STARLINK-1229 3.1 19:24:03 10° WNW 19:27:09 60° NNE 19:28:41 26° E
STARLINK-1271 3.1 19:24:29 10° WNW 19:27:35 61° NNE 19:29:07 26° E
STARLINK-1270 3.1 19:24:56 10° WNW 19:28:03 61° NNE 19:29:33 26° E
STARLINK-1154 3.1 19:25:23 10° WNW 19:28:29 62° NNE 19:29:59 27° E
APEX 4.4 19:22:24 10° NNW 19:28:54 74° WSW 19:33:59 11° SSE
Cosmos 1726 3.9 19:25:54 10° SW 19:29:21 35° WNW 19:32:49 10° N
STARLINK-1197 3.0 19:26:18 10° WNW 19:29:24 63° NNE 19:30:52 28° E
STARLINK-1189 3.0 19:26:44 10° WNW 19:29:50 63° NNE 19:31:17 28° E
STARLINK-1198 3.0 19:27:12 10° WNW 19:30:19 64° NNE 19:31:44 28° E
STARLINK-1188 3.0 19:27:37 10° WNW 19:30:44 64° NNE 19:32:08 29° E
STARLINK-1230 4.3 19:27:13 10° WNW 19:31:14 46° NNE 19:33:55 19° E
STARLINK-1235 2.8 19:28:17 10° WNW 19:31:27 79° NNE 19:32:51 30° ESE
STARLINK-1187 2.9 19:28:42 10° WNW 19:31:53 72° NNE 19:33:16 30° ESE
Cosmos 1943 4.4 19:26:44 10° SW 19:32:11 47° NW 19:37:42 10° NNE
SL-24 R/B 3.7 19:28:24 10° NNE 19:32:27 71° ESE 19:36:08 10° S
STARLINK-67 2.8 19:30:00 10° WNW 19:32:30 52° SW 19:33:19 34° SSE
STARLINK-1199 3.0 19:29:35 10° WNW 19:32:43 66° NNE 19:34:04 30° E
STARLINK-1191 3.0 19:30:01 10° WNW 19:33:10 67° NNE 19:34:30 30° E
DMSP B5D2-2 4.1 19:28:24 10° NNE 19:33:33 56° E 19:38:41 10° S
STARLINK-1210 3.0 19:30:29 10° WNW 19:33:37 67° NNE 19:34:56 31° E
STARLINK-1221 3.0 19:30:56 10° WNW 19:34:06 68° NNE 19:35:23 31° ESE
STARLINK-1219 3.0 19:31:23 10° WNW 19:34:31 68° NNE 19:35:49 32° ESE
STARLINK-1222 2.9 19:31:50 10° WNW 19:34:59 69° NNE 19:36:15 32° ESE
STARLINK-1211 2.9 19:32:18 10° WNW 19:35:27 69° NNE 19:36:42 33° ESE
Abrixas rocket 1.8 19:32:50 10° WNW 19:35:48 81° SSW 19:36:50 37° ESE
STARLINK-1214 2.9 19:32:44 10° WNW 19:35:52 70° NNE 19:37:06 33° ESE
STARLINK-1243 4.3 19:32:11 10° WNW 19:36:13 48° NNE 19:38:42 21° E
STARLINK-1245 2.9 19:33:14 10° WNW 19:36:21 70° NNE 19:37:32 34° ESE
STARLINK-1238 2.9 19:33:38 10° WNW 19:36:47 71° NNE 19:37:59 34° ESE
BREEZE-M DEB (TANK) 3.4 19:31:33 10° WNW 19:37:22 70° SSW 19:38:38 31° SE
STARLINK-29 2.8 19:34:21 10° SW 19:37:32 69° SSE 19:39:26 22° ENE
STARLINK-1205 2.9 19:34:35 10° WNW 19:37:43 72° NNE 19:38:51 35° ESE
STARLINK-1204 2.9 19:35:02 10° WNW 19:38:09 72° NNE 19:39:16 36° ESE
MetOp-A 4.1 19:34:45 10° SSE 19:40:07 89° E 19:45:31 10° NNW
STARLINK-1236 4.2 19:37:10 10° WNW 19:41:13 50° NNE 19:43:28 24° E
STARLINK-60 3.5 19:39:17 10° WSW 19:42:32 59° NNW 19:45:09 15° NE
CZ-2C R/B 2.6 19:37:43 10° NNE 19:42:50 57° E 19:47:57 10° S
Cosmos 1697 Rocket 4.3 19:41:29 10° N 19:45:43 21° NE 19:48:22 15° ENE
Terra 3.8 19:46:44 12° ENE 19:47:41 13° ENE 19:49:52 10° NNE
Cosmos 407 Rocket 3.8 19:42:49 10° SSW 19:47:56 68° WNW 19:53:04 10° NNE
ERS-1 Rocket 4.4 19:47:11 19° E 19:48:35 22° ENE 19:52:22 10° NNE
ARGOS 4.2 19:43:34 10° S 19:48:43 45° W 19:53:53 10° NNW
Cosmos 676 Rocket 3.9 19:45:03 10° S 19:50:16 68° ESE 19:55:30 10° NNE
STARLINK-1269 4.0 19:47:07 10° WNW 19:51:12 54° NNE 19:53:02 29° E
Iridium 2 4.2 19:50:40 36° ESE 19:51:14 38° E 19:54:48 10° NNE
STARLINK-1200 4.0 19:52:05 10° WNW 19:56:11 57° NNE 19:57:48 33° E
CZ-2C R/B 4.2 19:54:13 10° N 19:58:53 65° WNW 20:03:27 10° SSW
SPOT 3 Rocket 4.0 19:53:51 10° S 19:58:59 60° WSW 20:04:09 10° NNW
STARLINK-1192 3.9 19:57:05 10° WNW 20:01:12 60° NNE 20:02:36 37° E
Resurs 1-3 4.0 19:58:05 16° S 20:01:29 63° W 20:05:52 10° NNW
COSMOS 2455 3.0 19:59:58 10° NW 20:05:59 71° WSW 20:09:32 26° SSE
STARLINK-1201 2.9 20:02:48 10° WNW 20:06:04 74° SSW 20:06:17 70° S
STARLINK-1244 3.8 20:02:04 10° WNW 20:06:12 63° NNE 20:07:23 42° E
STARLINK-1228 3.6 20:04:54 10° WNW 20:07:12 38° WSW 20:07:12 38° WSW
Cosmos 1656 4.3 20:03:52 10° NNW 20:09:17 43° NE 20:11:09 33° E
STPSAT 2 (USA 217) 4.5 20:06:22 11° SSW 20:10:39 64° ESE 20:15:07 10° NNE
STARLINK-1138 3.7 20:07:03 10° WNW 20:11:11 67° NNE 20:12:10 48° E
Cosmos 1455 4.3 20:13:23 16° NE 20:13:23 16° NE 20:14:31 10° NE
MOS 1 Rocket 3.8 20:06:43 10° N 20:12:08 76° WNW 20:17:33 10° SSW
Cosmos 1954 Rocket 4.0 20:07:22 10° SSW 20:12:37 84° WNW 20:17:51 10° NNE
FALCON 9 DEB 3.3 20:09:51 10° WSW 20:13:20 73° NNW 20:14:16 45° NE
GRACE-FO 1 4.5 20:12:58 52° S 20:13:48 88° E 20:17:33 10° N
IGS 5A 3.9 20:13:40 41° E 20:13:54 42° ENE 20:17:50 10° N
GRACE-FO 2 4.5 20:13:21 52° S 20:14:12 89° E 20:17:56 10° N
Cosmos 1980 Rocket 3.9 20:11:20 10° N 20:15:23 20° NE 20:17:17 17° ENE
STARLINK-1143 3.7 20:12:01 10° WNW 20:16:10 71° NNE 20:16:57 54° E
Cosmos 1892 3.0 20:13:25 10° N 20:17:06 49° ENE 20:17:06 49° ENE
STARLINK-52 3.2 20:14:48 10° WSW 20:18:00 67° NNW 20:18:09 65° N
Cosmos 2058 Rocket 4.5 20:13:48 10° SW 20:18:01 39° WNW 20:22:17 10° N
ATLAS CENTAUR R/B 3.1 20:16:05 10° NNW 20:18:56 19° NE 20:19:27 18° NE
Cosmos 1741 Rocket 4.3 20:18:19 43° SE 20:19:02 46° ESE 20:24:08 10° NNE
STARLINK-1241 3.6 20:17:02 10° WNW 20:21:12 75° NNE 20:21:46 62° E
BREEZE M DEB (TANK) 3.1 20:17:46 10° SW 20:21:12 66° SSE 20:31:32 10° ENE
SPOT 1/Viking Rocket 3.8 20:21:21 43° ESE 20:22:32 52° ENE 20:27:36 10° N
Cosmos 2341 Rocket 4.4 20:17:34 10° NNW 20:23:53 64° W 20:29:06 16° S
ATLAS 5 CENTAUR R/B 2.7 20:20:08 10° WSW 20:24:11 44° NW 20:28:48 10° NNE
Cosmos 1825 3.9 20:21:18 10° NNE 20:23:21 21° NE 20:23:21 21° NE
CZ-4C R/B 3.8 20:19:00 10° NNW 20:25:14 36° NNE 20:29:18 22° E
STARLINK-1239 3.5 20:21:59 10° WNW 20:26:09 80° NNE 20:26:31 71° E
Cosmos 1763 Rocket 3.5 20:24:52 10° NNW 20:30:02 65° ENE 20:30:58 54° ESE
STARLINK-1240 3.4 20:26:58 10° WNW 20:31:08 85° NNE 20:31:18 81° E
Resurs 01 Rocket 2.7 20:31:53 24° SSW 20:34:05 41° W 20:38:17 10° NNW
Okean 3 Rocket 4.4 20:29:57 10° N 20:33:36 37° ENE 20:33:36 37° ENE
STARLINK-1216 3.5 20:31:57 10° WNW 20:36:05 89° NW 20:36:05 89° NW
Cosmos 540 Rocket 4.1 20:31:40 10° N 20:36:30 39° ENE 20:36:54 38° ENE
Cosmos 2218 Rocket 4.0 20:30:26 10° N 20:36:40 80° W 20:39:41 33° S
Cosmos 1300 4.2 20:35:17 13° SW 20:38:15 35° WNW 20:41:48 10° N
Meteor 2-12 Rocket 4.3 20:32:27 10° N 20:38:36 81° E 20:40:31 46° SSE
Cosmos 1174 4.1 20:36:42 10° NW 20:40:54 79° WSW 20:41:25 69° S
STARLINK-1237 3.6 20:36:55 10° WNW 20:40:51 79° W 20:40:51 79° W
Iridium 4 Rocket 2.9 20:37:33 10° N 20:41:46 82° W 20:41:55 79° SW
Landsat 7 3.7 20:42:03 70° SSE 20:42:38 86° ENE 20:47:25 10° NNW
USA 234 3.1 20:36:38 10° ENE 20:43:07 63° SE 20:49:36 10° SW
Cosmos 2082 Rocket 4.2 20:49:07 15° ENE 20:49:07 15° ENE 20:50:16 10° NE
SAR-Lupe-2 4.3 20:42:26 10° N 20:45:56 49° WNW 20:46:11 48° W
STARLINK-1202 3.8 20:41:56 10° WNW 20:45:40 69° W 20:45:40 69° W
Cosmos 1812 Rocket 3.9 20:46:09 47° SW 20:47:09 63° WNW 20:51:28 10° N
RESURS DK-1 2.9 20:48:18 10° NNW 20:51:45 52° NNE 20:51:45 52° NNE
SL-4 R/B 3.1 20:49:39 10° WNW 20:52:28 35° NNW 20:52:28 35° NNW
Cosmos 2058 3.5 20:49:51 10° NNW 20:53:49 49° W 20:54:04 48° WSW
Cosmos 1833 Rocket 3.7 20:56:29 31° ENE 20:56:29 31° ENE 20:59:44 10° NE
STARLINK-1246 4.2 20:51:52 10° WNW 20:55:12 53° W 20:55:12 53° W
Meteor 2-10 Rocket 3.5 20:58:38 67° ENE 20:58:38 67° ENE 21:03:47 10° NNE
USA 32 3.8 20:53:19 10° N 20:58:36 82° E 20:58:48 79° SE
Cosmos 2151 3.5 20:55:23 10° N 20:58:42 54° N 20:58:42 54° N
STARLINK-1203 4.4 20:56:01 10° WNW 20:59:15 47° W 20:59:15 47° W
Spot 2 Rocket 4.1 20:59:40 41° SW 21:00:56 51° W 21:05:55 10° NNW
STARLINK-1224 4.4 20:56:53 10° WNW 21:00:00 47° W 21:00:00 47° W
ERBS 4.3 20:58:04 10° WNW 20:59:49 27° WNW 20:59:49 27° WNW
Cosmos 1850 Rocket 4.0 21:02:16 49° SW 21:03:39 75° WNW 21:08:52 10° NNE
Cosmos 841 Rocket 3.4 21:03:01 10° NNW 21:08:12 76° NE 21:08:12 76° NE
COSMOS 2406 3.1 21:08:16 70° SSW 21:09:00 88° ESE 21:14:45 10° NNE
Cosmos 1408 4.2 21:09:32 10° NNW 21:11:46 34° NNW 21:11:46 34° NNW
Nadezhda 3 Rocket 3.8 21:15:55 73° SE 21:16:22 77° E 21:22:39 10° NNE
SPOT 5 3.3 21:22:33 51° NW 21:22:33 51° NW 21:25:53 10° NNW
Terra 2.2 21:25:36 59° N 21:25:36 59° N 21:29:29 10° NNW
ERS-1 Rocket 3.4 21:27:10 57° W 21:27:10 57° W 21:31:57 10° NNW
Cosmos 2369 3.6 21:21:55 10° NNW 21:27:19 81° NNW 21:27:19 81° NNW
Cosmos 1570 Rocket 4.3 21:23:23 10° NNW 21:28:26 61° W 21:28:26 61° W
Cosmos 1697 Rocket 2.7 21:24:44 10° NNW 21:30:07 79° NW 21:30:07 79° NW
Cosmos-2242 4.2 21:33:27 41° NW 21:33:27 41° NW 21:36:42 10° N
Cosmos 2239 Rocket 4.4 21:34:30 10° NNW 21:40:45 77° W 21:40:56 76° WSW
Cosmos 1821 Rocket 4.2 21:39:10 10° NNW 21:45:28 63° W 21:45:57 61° WSW
Cosmos 1934 Rocket 3.9 21:42:09 10° N 21:48:02 79° N 21:48:02 79° N
SL-16 R/B 3.5 21:45:26 10° N 21:50:12 29° NE 21:50:12 29° NE
Cosmos 2360 Rocket 4.2 21:48:25 10° N 21:52:01 17° NE 21:53:00 16° NE
Cosmos 2322 Rocket 3.6 21:53:12 10° N 21:57:48 28° NE 21:57:48 28° NE
ATLAS CENTAUR R/B 3.8 21:54:26 10° NW 21:55:38 19° NW 21:55:38 19° NW
Mayak 1.0 21:54:57 10° NNE 21:56:22 21° NNE 21:56:22 21° NNE
Cosmos 1980 Rocket 2.6 21:54:31 10° NNW 21:59:03 59° NNW 21:59:03 59° NNW
Meteor 2-3 Rocket 4.2 21:58:20 10° NNW 22:03:11 58° NW 22:03:11 58° NW
Cosmos 1605 Rocket 4.2 21:58:41 10° N 22:03:58 65° NNE 22:03:58 65° NNE
CZ-4C R/B 2.8 22:07:19 10° NW 22:14:28 81° WSW 22:14:28 81° WSW
USA 234 3.8 22:19:44 10° NE 22:26:06 55° NNW 22:32:26 10° W
Cosmos 2082 Rocket 3.1 22:30:55 46° N 22:30:55 46° N 22:35:10 10° NNE
Cosmos 1833 Rocket 3.9 22:38:06 35° WNW 22:38:27 36° NW 22:43:38 10° NNE
Cosmos 2344 4.4 22:36:53 10° NW 22:46:35 76° SW 22:48:33 65° S
Cosmos 2219 Rocket 4.4 22:46:13 10° N 22:49:50 17° NE 22:50:59 16° NE
SL-16 R/B 3.8 23:29:17 10° NW 23:32:03 29° NW 23:32:03 29° NW
Cosmos 2360 Rocket 3.4 23:31:23 10° NNW 23:34:45 37° NNW 23:34:45 37° NNW
Cosmos 2322 Rocket 3.8 23:36:56 10° NW 23:39:36 28° NW 23:39:36 28° NW
SJ 16-02 4.3 23:52:41 11° NE 23:52:41 11° NE 23:52:51 10° NE
